Location: Unspecified
(0.0000°N, 0.0000°E)
Time: 04:09:51
(UTC+00:00)

Envisat - Visible Passes

Search period start: 27 May 2017 00:00
Search period end: 06 June 2017 00:00
Orbit: 764 x 766 km, 98.2° (Epoch: 26 May)

Date Brightness Start Highest point End Pass type
(mag) Time Alt. Az. Time Alt. Az. Time Alt. Az.
27 May 5.4 20:40:01 16° NNW 20:40:01 16° NNW 20:40:59 10° NNW visible
28 May 5.1 20:02:50 15° NNE 20:02:50 15° NNE 20:03:50 10° NNE visible
29 May 5.8 21:05:50 12° NW 21:05:50 12° NW 21:06:11 10° NNW visible
30 May 5.2 20:28:40 18° N 20:28:40 18° N 20:29:54 10° N visible
31 May 5.1 19:51:28 14° NNE 19:51:28 14° NNE 19:52:20 10° NNE visible
01 Jun 5.6 20:54:29 15° NNW 20:54:29 15° NNW 20:55:22 10° NNW visible
02 Jun 5.0 20:17:19 19° N 20:17:19 19° N 20:18:43 10° N visible
03 Jun 5.2 19:40:08 12° NE 19:40:08 12° NE 19:40:38 10° NE visible
04 Jun 5.3 20:43:09 18° NNW 20:43:09 18° NNW 20:44:26 10° NNW visible
05 Jun 4.9 20:05:58 18° NNE 20:05:58 18° NNE 20:07:25 10° N visible
